Time,TemperatureF,DewpointF,PressureIn,WindDirection,WindDirectionDegrees,WindSpeedMPH,WindSpeedGustMPH,Humidity,HourlyPrecipIn,Conditions,Clouds,dailyrainin,SoftwareType,DateUTC
2014-02-20 00:19:00,34.7,30.1,30.07,NNE,25,0.0,0.0,83,0.00,,,0.00,Wunderground v.1.15,2014-02-20 05:19:00,
2014-02-20 00:29:00,33.1,29.7,30.08,East,92,0.0,0.0,87,0.00,,,0.00,Wunderground v.1.15,2014-02-20 05:29:00,
2014-02-20 00:39:00,32.1,29.2,30.09,East,93,0.0,0.0,89,0.00,,,0.00,Wunderground v.1.15,2014-02-20 05:39:00,
2014-02-20 00:50:00,31.4,28.8,30.09,ENE,78,0.0,0.0,90,0.00,,,0.00,Wunderground v.1.15,2014-02-20 05:50:00,
2014-02-20 01:00:00,30.9,28.3,30.09,North,9,0.0,0.0,90,0.00,,,0.00,Wunderground v.1.15,2014-02-20 06:00:00,
2014-02-20 01:10:00,30.4,28.1,30.10,North,8,0.0,0.0,91,0.00,,,0.00,Wunderground v.1.15,2014-02-20 06:10:00,
2014-02-20 01:20:00,29.9,27.9,30.10,North,8,0.0,0.0,92,0.00,,,0.00,Wunderground v.1.15,2014-02-20 06:20:00,
2014-02-20 01:30:00,29.6,27.8,30.11,NNW,342,0.0,0.0,93,0.00,,,0.00,Wunderground v.1.15,2014-02-20 06:30:00,
2014-02-20 01:39:00,28.9,27.1,30.12,NNW,341,0.0,0.0,93,0.00,,,0.00,Wunderground v.1.15,2014-02-20 06:39:00,
2014-02-20 01:50:00,28.3,26.5,30.13,NNW,341,0.0,0.0,93,0.00,,,0.00,Wunderground v.1.15,2014-02-20 06:50:00,
2014-02-20 02:00:00,28.3,26.8,30.13,NW,325,0.0,0.0,94,0.00,,,0.00,Wunderground v.1.15,2014-02-20 07:00:00,
2014-02-20 02:09:00,28.1,26.9,30.13,NNW,338,0.0,0.0,95,0.00,,,0.00,Wunderground v.1.15,2014-02-20 07:09:00,
2014-02-20 02:19:00,27.8,26.6,30.13,NNW,338,0.0,0.0,95,0.00,,,0.00,Wunderground v.1.15,2014-02-20 07:19:00,
2014-02-20 02:29:00,27.6,26.4,30.15,SE,136,0.0,0.0,95,0.00,,,0.00,Wunderground v.1.15,2014-02-20 07:29:00,
2014-02-20 02:39:00,27.3,26.1,30.15,SE,136,0.0,0.0,95,0.00,,,0.00,Wunderground v.1.15,2014-02-20 07:39:00,
2014-02-20 02:49:00,27.1,25.9,30.16,SW,236,0.0,0.0,95,0.00,,,0.00,Wunderground v.1.15,2014-02-20 07:49:00,
2014-02-20 03:09:00,26.7,25.7,30.16,ENE,75,0.0,0.0,96,0.00,,,0.00,Wunderground v.1.15,2014-02-20 08:09:00,
2014-02-20 03:19:00,26.3,25.1,30.17,ENE,75,0.0,0.0,95,0.00,,,0.00,Wunderground v.1.15,2014-02-20 08:19:00,
2014-02-20 03:29:00,25.8,24.6,30.17,ENE,75,0.0,0.0,95,0.00,,,0.00,Wunderground v.1.15,2014-02-20 08:29:00,
2014-02-20 03:39:00,25.6,24.6,30.17,North,5,0.0,0.0,96,0.00,,,0.00,Wunderground v.1.15,2014-02-20 08:39:00,
2014-02-20 03:50:00,25.3,24.3,30.17,North,5,0.0,0.0,96,0.00,,,0.00,Wunderground v.1.15,2014-02-20 08:50:00,
2014-02-20 04:00:00,25.3,24.3,30.17,NW,314,0.0,0.0,96,0.00,,,0.00,Wunderground v.1.15,2014-02-20 09:00:00,
2014-02-20 04:10:00,25.8,25.1,30.18,NW,326,1.0,1.0,97,0.00,,,0.00,Wunderground v.1.15,2014-02-20 09:10:00,
2014-02-20 04:20:00,25.1,24.1,30.18,NW,326,0.0,0.0,96,0.00,,,0.00,Wunderground v.1.15,2014-02-20 09:20:00,
2014-02-20 04:30:00,24.2,23.0,30.18,NW,326,0.0,0.0,95,0.00,,,0.00,Wunderground v.1.15,2014-02-20 09:30:00,
2014-02-20 04:39:00,23.7,22.5,30.18,NW,326,0.0,0.0,95,0.00,,,0.00,Wunderground v.1.15,2014-02-20 09:39:00,
2014-02-20 04:59:00,24.0,23.0,30.19,NNW,330,0.0,0.0,96,0.00,,,0.00,Wunderground v.1.15,2014-02-20 09:59:00,
2014-02-20 05:10:00,23.3,22.1,30.19,ENE,78,0.0,0.0,95,0.00,,,0.00,Wunderground v.1.15,2014-02-20 10:10:00,
2014-02-20 05:19:00,22.5,21.3,30.19,ENE,78,0.0,0.0,95,0.00,,,0.00,Wunderground v.1.15,2014-02-20 10:19:00,
2014-02-20 05:29:00,22.5,21.5,30.21,ENE,78,0.0,0.0,96,0.00,,,0.00,Wunderground v.1.15,2014-02-20 10:29:00,
2014-02-20 05:39:00,22.5,21.5,30.21,ENE,78,0.0,0.0,96,0.00,,,0.00,Wunderground v.1.15,2014-02-20 10:39:00,
2014-02-20 05:49:00,22.1,21.1,30.21,ENE,78,0.0,0.0,96,0.00,,,0.00,Wunderground v.1.15,2014-02-20 10:49:00,
2014-02-20 05:59:00,22.2,21.2,30.22,NNW,343,0.0,0.0,96,0.00,,,0.00,Wunderground v.1.15,2014-02-20 10:59:00,
2014-02-20 06:09:00,21.9,20.9,30.22,NNW,342,0.0,0.0,96,0.00,,,0.00,Wunderground v.1.15,2014-02-20 11:09:00,
2014-02-20 06:19:00,21.6,20.6,30.22,NNW,343,0.0,0.0,96,0.00,,,0.00,Wunderground v.1.15,2014-02-20 11:19:00,
2014-02-20 06:29:00,21.2,20.0,30.23,NNW,343,0.0,0.0,95,0.00,,,0.00,Wunderground v.1.15,2014-02-20 11:29:00,
2014-02-20 06:39:00,21.1,20.1,30.22,NNW,343,0.0,0.0,96,0.00,,,0.00,Wunderground v.1.15,2014-02-20 11:39:00,
2014-02-20 07:00:00,21.1,20.1,30.21,West,266,0.0,0.0,96,0.00,,,0.00,Wunderground v.1.15,2014-02-20 12:00:00,
2014-02-20 07:10:00,21.0,20.0,30.21,West,266,0.0,0.0,96,0.00,,,0.00,Wunderground v.1.15,2014-02-20 12:10:00,
2014-02-20 07:20:00,21.2,20.2,30.21,NW,315,0.0,0.0,96,0.00,,,0.00,Wunderground v.1.15,2014-02-20 12:20:00,
2014-02-20 07:30:00,21.5,20.5,30.22,NNW,334,0.0,0.0,96,0.00,,,0.00,Wunderground v.1.15,2014-02-20 12:30:00,
2014-02-20 07:40:00,21.5,20.5,30.22,NNW,333,0.0,0.0,96,0.00,,,0.00,Wunderground v.1.15,2014-02-20 12:40:00,
2014-02-20 07:50:00,21.9,20.9,30.23,North,350,0.0,0.0,96,0.00,,,0.00,Wunderground v.1.15,2014-02-20 12:50:00,
2014-02-20 07:59:00,22.5,21.5,30.24,SSE,166,1.0,1.0,96,0.00,,,0.00,Wunderground v.1.15,2014-02-20 12:59:00,
2014-02-20 08:09:00,23.4,22.4,30.25,SSE,166,0.0,1.0,96,0.00,,,0.00,Wunderground v.1.15,2014-02-20 13:09:00,
2014-02-20 08:19:00,24.3,23.3,30.26,North,9,0.0,0.0,96,0.00,,,0.00,Wunderground v.1.15,2014-02-20 13:19:00,
2014-02-20 08:29:00,25.1,24.1,30.27,East,94,0.0,0.0,96,0.00,,,0.00,Wunderground v.1.15,2014-02-20 13:29:00,
2014-02-20 08:39:00,26.5,25.8,30.27,SSE,149,0.0,0.0,97,0.00,,,0.00,Wunderground v.1.15,2014-02-20 13:39:00,
2014-02-20 08:49:00,28.5,27.8,30.26,SE,125,0.0,0.0,97,0.00,,,0.00,Wunderground v.1.15,2014-02-20 13:49:00,
2014-02-20 08:59:00,30.5,29.5,30.27,SE,125,0.0,0.0,96,0.00,,,0.00,Wunderground v.1.15,2014-02-20 13:59:00,
2014-02-20 09:09:00,32.3,30.2,30.27,SE,126,0.0,0.0,92,0.00,,,0.00,Wunderground v.1.15,2014-02-20 14:09:00,
2014-02-20 09:19:00,34.4,30.6,30.27,East,92,0.0,0.0,86,0.00,,,0.00,Wunderground v.1.15,2014-02-20 14:19:00,
2014-02-20 09:29:00,36.0,30.7,30.27,East,81,0.0,2.0,81,0.00,,,0.00,Wunderground v.1.15,2014-02-20 14:29:00,
2014-02-20 09:39:00,37.3,30.4,30.27,SSE,158,1.0,1.0,76,0.00,,,0.00,Wunderground v.1.15,2014-02-20 14:39:00,
2014-02-20 09:50:00,38.7,31.1,30.28,WSW,240,1.0,1.0,74,0.00,,,0.00,Wunderground v.1.15,2014-02-20 14:50:00,
2014-02-20 10:00:00,39.3,30.7,30.26,ESE,111,0.0,1.0,71,0.00,,,0.00,Wunderground v.1.15,2014-02-20 15:00:00,
2014-02-20 10:10:00,39.1,30.5,30.25,SSE,152,1.0,1.0,71,0.00,,,0.00,Wunderground v.1.15,2014-02-20 15:10:00,
2014-02-20 10:20:00,39.8,30.8,30.25,South,170,0.0,0.0,70,0.00,,,0.00,Wunderground v.1.15,2014-02-20 15:20:00,
2014-02-20 10:30:00,40.7,31.3,30.25,ENE,71,0.0,1.0,69,0.00,,,0.00,Wunderground v.1.15,2014-02-20 15:30:00,
2014-02-20 10:50:00,42.1,31.9,30.24,SE,139,1.0,1.0,67,0.00,,,0.00,Wunderground v.1.15,2014-02-20 15:50:00,
2014-02-20 10:59:00,43.2,31.8,30.24,SE,124,1.0,1.0,64,0.00,,,0.01,Wunderground v.1.15,2014-02-20 15:59:00,
2014-02-20 11:09:00,44.2,32.4,30.25,SSE,155,0.0,0.0,63,0.00,,,0.01,Wunderground v.1.15,2014-02-20 16:09:00,
2014-02-20 11:19:00,44.8,32.2,30.25,SSE,149,1.0,1.0,61,0.00,,,0.01,Wunderground v.1.15,2014-02-20 16:19:00,
2014-02-20 11:29:00,46.0,31.6,30.25,SE,126,1.0,1.0,57,0.00,,,0.01,Wunderground v.1.15,2014-02-20 16:29:00,
2014-02-20 11:39:00,46.4,31.5,30.24,SE,130,1.0,1.0,56,0.00,,,0.01,Wunderground v.1.15,2014-02-20 16:39:00,
2014-02-20 11:49:00,45.5,31.1,30.22,SSE,163,1.0,1.0,57,0.00,,,0.01,Wunderground v.1.15,2014-02-20 16:49:00,
2014-02-20 11:59:00,45.9,31.5,30.21,SE,124,1.0,2.0,57,0.00,,,0.01,Wunderground v.1.15,2014-02-20 16:59:00,
2014-02-20 12:09:00,46.0,30.7,30.22,SW,235,1.0,1.0,55,0.00,,,0.01,Wunderground v.1.15,2014-02-20 17:09:00,
2014-02-20 12:19:00,45.5,30.7,30.22,SE,139,1.0,1.0,56,0.00,,,0.01,Wunderground v.1.15,2014-02-20 17:19:00,
2014-02-20 12:29:00,46.1,30.4,30.21,NNW,347,0.0,0.0,54,0.00,,,0.01,Wunderground v.1.15,2014-02-20 17:29:00,
2014-02-20 12:39:00,46.9,30.2,30.21,North,349,1.0,2.0,52,0.00,,,0.01,Wunderground v.1.15,2014-02-20 17:39:00,
2014-02-20 12:50:00,47.2,30.5,30.19,WSW,239,0.0,1.0,52,0.00,,,0.01,Wunderground v.1.15,2014-02-20 17:50:00,
2014-02-20 13:00:00,48.3,30.0,30.20,WSW,243,1.0,1.0,49,0.00,,,0.01,Wunderground v.1.15,2014-02-20 18:00:00,
2014-02-20 13:10:00,49.1,30.7,30.19,SSE,152,0.0,1.0,49,0.00,,,0.01,Wunderground v.1.15,2014-02-20 18:10:00,
2014-02-20 13:20:00,49.7,31.3,30.18,WSW,237,0.0,1.0,49,0.00,,,0.01,Wunderground v.1.15,2014-02-20 18:20:00,
2014-02-20 13:30:00,50.3,30.3,30.18,ESE,104,0.0,1.0,46,0.00,,,0.01,Wunderground v.1.15,2014-02-20 18:30:00,
2014-02-20 13:40:00,51.8,30.6,30.17,SE,134,1.0,1.0,44,0.00,,,0.01,Wunderground v.1.15,2014-02-20 18:40:00,
2014-02-20 13:50:00,51.3,30.7,30.17,SE,130,1.0,1.0,45,0.00,,,0.01,Wunderground v.1.15,2014-02-20 18:50:00,
2014-02-20 13:59:00,49.5,30.1,30.16,ESE,110,1.0,1.0,47,0.00,,,0.01,Wunderground v.1.15,2014-02-20 18:59:00,
2014-02-20 14:09:00,49.1,30.7,30.15,NE,36,1.0,1.0,49,0.00,,,0.01,Wunderground v.1.15,2014-02-20 19:09:00,
2014-02-20 14:19:00,49.7,30.8,30.14,SSW,205,0.0,0.0,48,0.00,,,0.01,Wunderground v.1.15,2014-02-20 19:19:00,
2014-02-20 14:29:00,50.1,30.6,30.14,ESE,108,0.0,0.0,47,0.00,,,0.01,Wunderground v.1.15,2014-02-20 19:29:00,
2014-02-20 14:39:00,50.1,30.1,30.14,East,101,0.0,2.0,46,0.00,,,0.01,Wunderground v.1.15,2014-02-20 19:39:00,
2014-02-20 14:49:00,50.3,30.3,30.14,South,173,1.0,1.0,46,0.00,,,0.01,Wunderground v.1.15,2014-02-20 19:49:00,
2014-02-20 14:59:00,50.7,30.7,30.16,ENE,78,0.0,0.0,46,0.00,,,0.01,Wunderground v.1.15,2014-02-20 19:59:00,
2014-02-20 15:09:00,50.0,29.5,30.15,ESE,116,1.0,1.0,45,0.00,,,0.01,Wunderground v.1.15,2014-02-20 20:09:00,
2014-02-20 15:19:00,49.1,28.7,30.15,SE,143,1.0,1.0,45,0.00,,,0.01,Wunderground v.1.15,2014-02-20 20:19:00,
2014-02-20 15:29:00,48.3,27.4,30.15,East,91,1.0,1.0,44,0.00,,,0.01,Wunderground v.1.15,2014-02-20 20:29:00,
2014-02-20 15:40:00,47.3,28.6,30.13,SSE,148,1.0,1.0,48,0.00,,,0.01,Wunderground v.1.15,2014-02-20 20:40:00,
2014-02-20 16:00:00,47.4,29.2,30.12,SE,127,0.0,0.0,49,0.00,,,0.01,Wunderground v.1.15,2014-02-20 21:00:00,
2014-02-20 16:10:00,46.8,31.0,30.12,ESE,122,0.0,0.0,54,0.00,,,0.01,Wunderground v.1.15,2014-02-20 21:10:00,
2014-02-20 16:20:00,45.5,31.1,30.13,ENE,77,0.0,0.0,57,0.00,,,0.01,Wunderground v.1.15,2014-02-20 21:20:00,
2014-02-20 16:30:00,44.2,32.0,30.14,ENE,77,0.0,0.0,62,0.00,,,0.01,Wunderground v.1.15,2014-02-20 21:30:00,
2014-02-20 16:39:00,42.3,32.8,30.13,ENE,77,0.0,0.0,69,0.00,,,0.01,Wunderground v.1.15,2014-02-20 21:39:00,
2014-02-20 16:50:00,41.2,33.2,30.11,ENE,77,0.0,0.0,73,0.00,,,0.01,Wunderground v.1.15,2014-02-20 21:50:00,
2014-02-20 17:00:00,40.1,33.5,30.13,North,355,0.0,1.0,77,0.00,,,0.01,Wunderground v.1.15,2014-02-20 22:00:00,
2014-02-20 17:09:00,39.4,33.1,30.12,North,355,0.0,0.0,78,0.00,,,0.01,Wunderground v.1.15,2014-02-20 22:09:00,
2014-02-20 17:19:00,38.9,33.3,30.11,North,355,0.0,0.0,80,0.00,,,0.01,Wunderground v.1.15,2014-02-20 22:19:00,
2014-02-20 17:29:00,38.4,33.1,30.10,North,355,0.0,0.0,81,0.00,,,0.01,Wunderground v.1.15,2014-02-20 22:29:00,
2014-02-20 17:39:00,37.9,32.9,30.10,North,355,0.0,0.0,82,0.00,,,0.01,Wunderground v.1.15,2014-02-20 22:39:00,
2014-02-20 17:49:00,37.6,32.6,30.10,North,354,0.0,0.0,82,0.00,,,0.01,Wunderground v.1.15,2014-02-20 22:49:00,
2014-02-20 17:59:00,37.3,32.9,30.10,NNW,347,0.0,0.0,84,0.00,,,0.01,Wunderground v.1.15,2014-02-20 22:59:00,
2014-02-20 18:09:00,37.0,32.6,30.10,NNW,347,0.0,0.0,84,0.00,,,0.01,Wunderground v.1.15,2014-02-20 23:09:00,
2014-02-20 18:19:00,36.7,32.6,30.08,NNW,344,0.0,0.0,85,0.00,,,0.01,Wunderground v.1.15,2014-02-20 23:19:00,
2014-02-20 18:29:00,36.5,32.7,30.08,ENE,72,0.0,0.0,86,0.00,,,0.01,Wunderground v.1.15,2014-02-20 23:29:00,
2014-02-20 18:40:00,36.5,32.7,30.08,NNW,347,0.0,0.0,86,0.00,,,0.01,Wunderground v.1.15,2014-02-20 23:40:00,
2014-02-20 18:50:00,36.3,32.5,30.08,West,264,0.0,0.0,86,0.00,,,0.01,Wunderground v.1.15,2014-02-20 23:50:00,
2014-02-20 19:00:00,36.3,32.5,30.08,West,264,0.0,0.0,86,0.00,,,0.01,Wunderground v.1.15,2014-02-21 00:00:00,
2014-02-20 19:10:00,36.3,32.5,30.09,NNW,329,0.0,0.0,86,0.00,,,0.01,Wunderground v.1.15,2014-02-21 00:10:00,
2014-02-20 19:20:00,36.3,32.5,30.09,NW,323,0.0,0.0,86,0.00,,,0.01,Wunderground v.1.15,2014-02-21 00:20:00,
2014-02-20 19:40:00,36.0,32.2,30.08,NW,323,0.0,0.0,86,0.00,,,0.01,Wunderground v.1.15,2014-02-21 00:40:00,
2014-02-20 19:49:00,35.8,32.6,30.08,NW,323,0.0,0.0,88,0.00,,,0.01,Wunderground v.1.15,2014-02-21 00:49:00,
2014-02-20 19:59:00,36.0,32.8,30.08,NW,311,0.0,0.0,88,0.00,,,0.01,Wunderground v.1.15,2014-02-21 00:59:00,
2014-02-20 20:09:00,36.1,32.6,30.08,NW,315,0.0,0.0,87,0.00,,,0.01,Wunderground v.1.15,2014-02-21 01:09:00,
2014-02-20 20:19:00,36.1,32.6,30.09,WSW,257,0.0,1.0,87,0.00,,,0.01,Wunderground v.1.15,2014-02-21 01:19:00,
2014-02-20 20:29:00,35.9,32.4,30.08,NNW,342,0.0,0.0,87,0.00,,,0.01,Wunderground v.1.15,2014-02-21 01:29:00,
2014-02-20 20:39:00,35.9,32.4,30.08,West,271,0.0,0.0,87,0.00,,,0.01,Wunderground v.1.15,2014-02-21 01:39:00,
2014-02-20 20:49:00,36.0,32.5,30.07,West,270,0.0,1.0,87,0.00,,,0.01,Wunderground v.1.15,2014-02-21 01:49:00,
2014-02-20 20:59:00,35.9,32.4,30.08,West,281,0.0,0.0,87,0.00,,,0.01,Wunderground v.1.15,2014-02-21 01:59:00,
2014-02-20 21:09:00,35.8,32.6,30.08,WSW,254,0.0,1.0,88,0.00,,,0.01,Wunderground v.1.15,2014-02-21 02:09:00,
2014-02-20 21:19:00,35.7,32.5,30.07,WNW,297,0.0,1.0,88,0.00,,,0.01,Wunderground v.1.15,2014-02-21 02:19:00,
2014-02-20 21:29:00,35.6,32.4,30.06,WNW,288,0.0,0.0,88,0.00,,,0.01,Wunderground v.1.15,2014-02-21 02:29:00,
2014-02-20 21:50:00,35.5,32.3,30.05,West,271,0.0,0.0,88,0.00,,,0.01,Wunderground v.1.15,2014-02-21 02:50:00,
2014-02-20 22:00:00,35.4,32.5,30.04,WNW,283,0.0,0.0,89,0.00,,,0.01,Wunderground v.1.15,2014-02-21 03:00:00,
2014-02-20 22:10:00,35.3,32.4,30.04,West,266,0.0,0.0,89,0.00,,,0.01,Wunderground v.1.15,2014-02-21 03:10:00,
2014-02-20 22:20:00,35.3,32.4,30.04,West,280,0.0,0.0,89,0.00,,,0.01,Wunderground v.1.15,2014-02-21 03:20:00,
2014-02-20 22:30:00,35.2,32.3,30.03,West,280,0.0,0.0,89,0.00,,,0.01,Wunderground v.1.15,2014-02-21 03:30:00,
2014-02-20 22:40:00,35.1,32.2,30.03,NW,304,0.0,1.0,89,0.00,,,0.01,Wunderground v.1.15,2014-02-21 03:40:00,
2014-02-20 22:49:00,34.8,31.9,30.03,NW,311,0.0,0.0,89,0.00,,,0.01,Wunderground v.1.15,2014-02-21 03:49:00,
2014-02-20 22:59:00,34.6,32.0,30.02,WNW,290,0.0,0.0,90,0.00,,,0.01,Wunderground v.1.15,2014-02-21 03:59:00,
2014-02-20 23:10:00,34.5,31.9,30.02,NNW,330,0.0,0.0,90,0.00,,,0.01,Wunderground v.1.15,2014-02-21 04:10:00,
2014-02-20 23:19:00,34.3,31.7,30.02,NNW,342,0.0,0.0,90,0.00,,,0.01,Wunderground v.1.15,2014-02-21 04:19:00,
2014-02-20 23:29:00,34.2,31.8,30.01,NNW,340,0.0,0.0,91,0.00,,,0.01,Wunderground v.1.15,2014-02-21 04:29:00,
2014-02-20 23:39:00,34.4,31.8,30.01,WNW,300,0.0,0.0,90,0.00,,,0.01,Wunderground v.1.15,2014-02-21 04:39:00,
2014-02-20 23:49:00,34.7,32.1,30.01,North,5,1.0,1.0,90,0.00,,,0.01,Wunderground v.1.15,2014-02-21 04:49:00,
2014-02-20 23:59:00,34.7,32.1,30.01,NW,323,0.0,0.0,90,0.00,,,0.00,Wunderground v.1.15,2014-02-21 04:59:00,